This demonstration page uses our WeatherBlox Daily Observations layout. Learn more.

Left ArrowRight Arrow

39.08367, -84.50855

Hourly Observations for June 22, 2015

Temp ( °F °C ) Dew Point ( °F °C ) Humidity (%) Winds ( mph kmh ) Pressure ( in mb ) Visibility ( mi km ) Precip ( " mm )
12:53 am 00:53 Clear 71 21.7 69 20.6 94 94 N N/A 30.03 1017 10 16 N/A
1:53 am 01:53 Clear 69 20.6 68 20 96 96 N N/A 30.01 1016 10 16 N/A
2:53 am 02:53 Clear 69 20.6 69 20.6 100 100 N N/A 30.01 1016 9 14 N/A
3:53 am 03:53 Clear 68 20 67 19.4 96 96 N N/A 30.03 1017 9 14 N/A
4:45 am 04:45 Clear with Mist and Fog 68 20 66 18.9 93 93 N N/A 30.00 1016 2 3 N/A
4:53 am 04:53 Clear with Mist and Fog 67 19.4 67 19.4 100 100 N N/A 30.03 1017 1 2 N/A
5:06 am 05:06 Clear with Mist and Fog 66 19 66 19 100 100 N N/A 30.03 1017 3 5 N/A
5:53 am 05:53 Mostly Clear 67 19.4 66 18.9 97 97 N N/A 30.04 1017 8 13 N/A
6:24 am 06:24 Sunny with Mist and Fog 66 19 66 19 100 100 N N/A 30.03 1017 1 2 N/A
6:31 am 06:31 Partly Cloudy with Mist and Fog 67 19.4 67 19.4 100 100 N N/A 30.03 1017 4 6 N/A
6:53 am 06:53 Cloudy 69 20.6 68 20 96 96 N N/A 30.06 1018 8 13 N/A
7:53 am 07:53 Mostly Cloudy 71 21.7 70 21.1 96 96 N N/A 30.08 1019 10 16 N/A
8:53 am 08:53 Mostly Sunny 75 23.9 69 20.6 82 82 S 5 7 30.04 1017 10 16 N/A
9:53 am 09:53 Sunny 77 25 68 20 74 74 VRB 3 6 30.02 1017 10 16 N/A
10:53 am 10:53 Sunny 79 26.1 69 20.6 72 72 S 6 9 30.01 1016 10 16 N/A
11:53 am 11:53 Sunny 82 27.8 69 20.6 65 65 S 7 11 30.03 1017 10 16 N/A
12:53 pm 12:53 Sunny 84 28.9 71 21.7 65 65 S 10 17 30.06 1018 10 16 N/A
1:53 pm 13:53 Partly Cloudy 85 29.4 71 21.7 63 63 SSW 6 9 30.06 1018 10 16 N/A
2:53 pm 14:53 Mostly Cloudy 85 29.4 72 22.2 65 65 SSW 12 19 30.01 1016 10 16 N/A
3:53 pm 15:53 Sunny 84 28.9 71 21.7 65 65 SSW 9 15 30.01 1016 10 16 N/A
4:53 pm 16:53 Sunny 85 29.4 72 22.2 65 65 SSW 9 15 29.98 1015 10 16 N/A
5:53 pm 17:53 Sunny 83 28.3 72 22.2 70 70 SSW 10 17 29.97 1015 10 16 N/A
6:53 pm 18:53 Sunny 84 28.9 74 23.3 72 72 S 10 17 29.96 1015 10 16 N/A
7:53 pm 19:53 Sunny 82 27.8 74 23.3 77 77 SSW 9 15 29.94 1014 10 16 N/A
8:53 pm 20:53 Sunny 80 26.7 74 23.3 82 82 SSW 8 13 29.93 1014 10 16 N/A
9:53 pm 21:53 Clear 80 26.7 71 21.7 74 74 SSW 12 19 29.90 1013 10 16 N/A
10:53 pm 22:53 Clear 77 25 72 22.2 85 85 SSW 9 15 29.93 1014 10 16 N/A
11:53 pm 23:53 Clear 78 25.6 73 22.8 85 85 SSW 8 13 29.94 1014 10 16 N/A

Powered by AerisWeather